Location: Unspecified
(0.0000°N, 0.0000°E)
Time: 15:39:04
(UTC+00:00)

FENGYUN 1C DEB - Pass Details

Date: 19 February 2026
Orbit: 814 x 927 km, 98.2° (Epoch: 15 July)

Event Time Altitude Azimuth Distance (km) Brightness Sun altitude
Rises 19:18:00 0° 170° (S) 3,398 ? -15.7°
Reaches altitude 10° 19:20:21 10° 171° (S) 2,471 ? -16.3°
Maximum altitude 19:25:51 80° 258° (WSW) 875 ? -17.7°
Drops below altitude 10° 19:31:26 10° 345° (NNW) 2,509 ? -19.0°
Sets 19:33:50 0° 346° (NNW) 3,452 ? -19.6°
